User: anonymous   Login
Location: Bonn
(50.7330°N, 7.1000°E)
Time: 17:16:37
(UTC+01:00)
Language:

Cosmos 1933 Rocket - Orbit

View from above orbital plane
View from above orbital plane
View from above satellite
View from above satellite

Ground track
Ground track

The orbit data is extracted from the following two-line orbital elements,

1 18959U 88020B   15024.54340715  .00000339  00000-0  38685-4 0  4669
2 18959 082.5383 007.9547 0018371 138.2436 001.2442 14.83010718450939
Epoch (UTC): 24 January 2015 13:02:30
Eccentricity: 0.0018371
inclination: 82.5383°
perigee height: 607 km
apogee height: 632 km
right ascension of ascending node: 7.9547°
argument of perigee: 138.2436°
revolutions per day: 14.83010718
mean anomaly at epoch: 1.2442°
orbit number at epoch: 45093

The dashed part of the orbit path shows where the satellite is in the earth's shadow,  

DLR